ECMWFNIL_500_rhum_021.txt.gz
RH
77 90 94 97 99 87 78 82 77 68 61 45 24 13 12 15 16 15 14 12 10 7 4 4 4 4 4 3 3 3 2 2 2 2 2 3 3 3 3 4 4 4
77 83 92 100 90 69 70 88 85 73 66 48 26 15 13 14 15 15 16 18 18 17 15 13 11 9 9 9 8 7 6 5 4 3 3 3 3 3 3 4 4 4
79 71 72 79 65 50 68 91 90 82 73 53 32 23 18 16 15 14 16 18 22 25 26 25 24 22 20 19 17 15 14 13 11 8 7 5 5 5 5 5 4 5
84 78 66 61 53 53 72 90 95 93 83 63 45 37 31 24 19 17 17 19 26 32 35 35 35 33 31 29 26 25 23 21 19 16 12 10 9 8 7 7 7 7
72 71 60 53 55 65 76 85 96 101 95 79 59 49 43 31 24 23 20 20 26 36 45 47 45 43 40 37 34 33 32 29 25 22 19 17 16 15 13 12 11 11
49 49 46 40 41 53 59 68 87 99 100 92 74 59 51 37 30 30 29 28 29 37 48 54 55 53 49 45 42 39 37 36 33 30 28 26 23 21 20 19 18 17
31 38 49 47 40 41 44 57 85 101 102 100 89 75 61 44 34 33 35 37 37 41 48 52 56 57 56 54 51 46 43 42 41 39 38 37 35 33 31 29 28 26
33 39 54 52 43 45 50 61 82 93 91 89 86 84 75 57 43 40 41 42 44 46 48 51 54 57 60 60 58 55 53 51 51 51 49 47 44 42 41 40 39 37
44 40 46 46 43 49 54 62 73 77 73 71 74 87 92 75 54 46 47 47 47 47 48 50 55 59 61 63 62 58 56 57 60 61 60 58 54 51 48 45 44 44
43 42 44 43 43 42 42 50 62 64 63 68 76 88 97 91 74 62 59 60 60 59 60 59 58 61 64 65 63 60 58 62 68 73 76 75 72 69 64 58 53 50
44 48 45 40 42 45 44 44 44 41 44 62 83 96 100 99 94 86 81 79 78 78 82 81 73 69 69 66 64 63 64 67 74 82 86 87 89 90 88 82 71 61
43 46 44 42 45 52 54 47 37 28 28 40 57 66 68 74 86 96 100 100 94 87 86 86 80 76 76 72 67 64 65 71 78 82 84 86 91 92 92 95 90 76
44 45 47 47 51 58 60 57 50 40 34 32 27 24 28 39 56 70 79 87 94 94 89 83 79 82 87 86 78 70 66 69 74 79 85 93 97 93 87 91 97 88
43 44 47 49 53 58 60 62 58 47 41 37 25 20 24 28 37 51 59 68 84 96 93 86 81 81 85 87 87 85 79 73 72 77 89 97 96 93 92 95 96 91
41 42 47 47 48 50 49 50 44 37 42 45 37 41 47 42 48 67 71 65 73 88 93 91 82 70 66 71 80 87 87 83 83 86 95 99 88 81 88 97 99 96
37 36 36 37 43 51 49 40 33 36 50 51 43 51 62 57 55 63 65 57 60 72 80 78 65 50 46 51 59 64 64 62 63 64 70 78 79 77 75 77 87 97
33 32 29 27 34 46 48 39 36 43 49 42 31 36 54 67 66 61 56 49 46 52 57 51 42 38 38 41 44 48 49 48 47 46 45 47 55 69 70 62 71 83
36 37 37 34 33 38 41 37 36 39 40 35 28 27 40 57 60 50 40 35 40 52 54 43 35 36 37 37 39 40 41 43 44 44 44 40 39 47 50 46 51 57
42 44 46 46 42 40 40 38 36 38 41 40 34 30 31 35 35 32 31 35 43 46 40 32 30 34 35 34 36 35 35 38 40 39 40 40 38 38 39 39 41 40
48 53 59 65 63 59 54 48 44 46 50 50 45 40 36 31 30 30 31 37 40 34 30 33 36 34 32 31 32 34 34 34 35 35 35 35 34 32 34 39 42 41
64 65 71 82 86 83 77 66 57 57 61 61 55 49 44 41 40 41 41 45 50 46 43 44 42 37 34 32 30 32 35 35 34 34 34 34 33 32 31 33 35 37
88 82 80 84 87 88 86 76 68 67 72 73 67 61 56 52 51 52 51 53 58 61 58 56 53 49 43 37 32 32 35 38 39 38 36 36 36 35 35 35 34 33
95 93 89 85 83 82 82 81 78 77 79 80 78 72 67 64 64 65 65 66 68 71 74 73 67 59 48 38 33 34 37 40 41 41 40 40 40 39 39 38 38 37
86 89 91 92 93 90 90 93 93 91 90 89 88 85 80 78 77 74 75 76 76 78 81 79 71 61 49 38 33 34 37 41 43 43 42 43 44 45 44 43 42 41
96 95 96 99 101 101 103 103 99 97 98 95 93 90 86 83 77 70 68 71 73 74 72 65 60 57 47 37 34 36 39 43 46 47 48 49 50 50 49 47 45 41
99 98 96 94 91 92 98 101 99 98 97 96 94 91 84 74 63 55 58 66 67 61 51 47 51 52 43 35 33 33 35 39 42 44 45 45 44 42 40 36 32 28

ECMWFNIL_500_rhum_024.txt.gz
RH
76 74 72 79 87 87 88 97 102 92 74 67 72 69 52 31 19 16 17 16 14 10 8 6 6 6 5 5 4 3 3 3 3 2 3 3 3 3 4 4 4 4
89 87 85 84 84 84 92 100 95 76 63 67 73 73 59 35 20 17 17 16 15 13 10 7 6 5 4 4 4 4 4 4 4 4 4 4 4 5 5 5 5 5
83 79 74 74 77 78 80 81 72 61 66 76 76 79 75 50 28 21 19 17 16 15 13 10 9 7 6 5 5 6 6 6 6 6 7 7 7 7 7 7 7 7
62 65 63 65 71 72 69 69 66 64 76 88 85 84 85 70 49 36 29 23 19 17 17 15 14 12 12 11 11 11 11 10 11 11 11 11 10 10 9 9 9 10
48 54 54 53 57 60 58 61 72 79 86 95 92 83 82 83 73 58 45 33 23 20 19 18 19 19 19 20 20 21 20 19 19 19 19 18 17 16 16 15 15 15
36 36 37 37 40 47 45 45 59 73 79 87 91 86 84 89 84 72 59 43 29 25 24 23 24 26 28 29 30 31 31 30 29 28 28 26 25 24 24 24 23 22
27 31 39 37 36 44 48 48 54 59 63 75 91 97 94 88 77 68 68 62 44 30 28 30 31 33 35 37 39 40 39 39 37 36 35 33 32 32 31 31 30 30
26 38 51 46 39 42 46 48 49 52 58 71 85 91 83 72 65 63 73 83 72 48 36 36 37 39 43 44 45 46 45 44 42 39 37 36 36 37 38 38 38 38
28 33 41 40 38 39 41 42 43 46 53 60 69 75 72 69 72 75 81 93 92 68 47 43 43 43 44 46 48 49 49 50 48 44 39 38 40 43 44 44 46 47
31 26 24 28 34 37 37 37 37 39 42 45 51 56 60 67 81 92 94 97 95 80 66 59 54 48 46 45 46 49 51 53 54 51 46 43 44 47 48 51 54 58
32 26 21 21 25 30 30 30 36 46 49 47 43 38 38 48 70 93 99 93 84 79 81 81 75 71 68 63 57 57 59 59 57 56 53 49 49 50 51 54 57 61
37 32 26 22 20 22 22 22 30 42 49 49 47 41 35 35 46 60 63 57 51 53 67 80 88 93 93 90 86 80 78 77 74 71 66 60 56 55 58 61 61 60
40 38 34 30 27 24 22 19 19 24 34 46 52 52 50 46 44 40 33 29 29 36 49 63 78 89 91 94 98 93 90 92 92 91 89 81 72 66 67 70 68 65
35 35 32 28 29 30 31 28 20 16 22 35 43 43 43 46 50 49 45 39 36 40 43 44 52 63 71 84 96 98 98 96 89 88 91 90 87 83 79 80 81 79
28 30 27 24 23 28 33 33 27 20 18 22 27 31 37 47 55 60 65 65 63 61 55 49 59 71 77 88 98 100 100 91 75 70 72 71 74 79 78 77 76 74
24 28 29 28 25 27 32 34 32 29 24 20 18 23 41 60 67 70 75 76 76 77 68 64 78 92 92 97 103 102 97 82 62 55 55 52 51 57 62 63 65 66
20 23 26 29 30 30 31 32 34 33 30 27 20 22 40 56 56 58 67 72 80 90 84 73 81 94 97 99 96 86 75 63 49 41 40 40 38 40 44 49 56 62
20 22 25 31 38 42 39 35 36 33 28 27 22 21 33 45 46 53 64 70 81 92 85 72 72 80 83 78 68 56 50 47 41 32 27 27 27 27 30 32 35 40
15 19 29 42 52 56 51 44 40 34 27 24 21 24 40 58 69 76 77 72 73 75 68 59 55 55 53 49 44 43 44 42 37 30 24 20 18 18 20 21 23 24
24 35 50 62 67 67 65 59 49 38 29 24 22 31 51 68 76 73 66 61 60 57 50 44 38 35 36 37 41 46 47 45 41 38 33 25 20 17 16 18 21 21
46 62 77 85 87 86 81 70 55 42 35 32 29 32 43 56 62 60 53 53 58 58 52 43 37 37 42 49 55 57 55 53 51 48 41 34 29 25 19 16 19 21
57 60 70 76 76 76 74 67 63 61 57 52 48 45 44 48 54 56 54 54 60 66 65 57 50 54 59 60 58 54 48 46 45 43 41 35 30 27 22 17 15 18
74 66 65 68 69 74 81 82 80 79 73 65 60 56 51 49 49 51 54 59 68 77 80 75 70 69 67 61 54 47 40 36 35 35 35 30 24 23 23 19 14 15
83 77 71 76 88 96 100 97 91 83 74 64 58 54 52 53 54 56 61 69 81 91 93 89 84 78 72 65 57 46 38 35 35 35 32 27 22 22 22 18 14 13
86 88 86 89 98 103 102 101 97 91 83 76 73 72 72 72 71 71 75 83 92 99 101 98 94 89 85 80 67 50 39 39 43 42 35 27 22 22 21 18 14 12
95 97 99 100 101 101 101 102 100 97 95 94 94 94 94 95 92 90 92 96 98 101 102 102 99 98 98 94 78 60 50 50 52 50 40 30 24 22 20 18 14 13

ECMWFNIL_500_rhum_030.txt.gz
RH
37 33 31 29 29 33 44 51 49 47 48 53 57 56 54 52 52 61 76 79 70 61 51 37 23 16 13 12 12 12 11 9 8 7 7 7 7 8 8 7 7 7
38 35 35 37 40 44 52 56 54 55 57 58 61 61 60 58 57 64 73 73 66 58 46 32 22 15 12 11 11 11 12 11 8 6 5 5 5 5 5 5 5 4
49 49 48 50 54 52 48 44 47 56 59 54 50 49 54 63 66 63 63 64 66 63 50 32 22 18 16 14 13 12 13 13 11 8 5 4 4 4 4 4 4 3
56 54 52 55 57 49 36 30 33 43 48 48 46 46 51 58 60 56 57 64 70 69 60 46 36 31 29 25 19 16 14 15 14 12 10 7 6 5 5 4 4 4
63 60 56 51 46 36 29 27 28 33 40 43 48 56 63 64 61 57 58 65 71 70 67 62 56 49 43 35 27 21 18 18 18 17 16 14 11 10 9 8 8 8
61 58 49 41 35 29 25 23 22 24 29 32 38 50 61 68 70 67 65 68 71 69 67 68 67 62 51 40 31 26 24 23 24 24 23 22 22 20 18 17 16 15
47 43 37 33 31 25 20 18 16 16 17 19 23 30 39 51 63 68 67 67 64 61 63 65 66 64 57 45 34 29 29 29 30 31 30 30 29 27 27 26 26 25
37 33 30 30 26 21 18 16 15 18 20 20 22 25 32 43 54 58 56 55 57 60 64 66 63 60 58 54 45 36 32 32 34 35 37 38 36 35 35 34 34 34
33 30 28 26 23 22 21 18 20 24 26 27 27 28 32 38 44 44 42 48 57 62 65 63 58 53 52 55 56 49 38 34 35 38 40 43 44 45 44 44 43 42
34 30 27 26 24 23 23 23 26 25 22 21 21 22 26 30 33 33 33 37 44 50 54 56 54 50 48 52 59 59 50 39 35 37 41 46 51 53 53 53 52 51
50 43 35 29 25 23 25 27 28 25 20 17 15 17 22 24 24 25 26 27 30 33 36 37 37 38 44 54 63 65 61 52 45 43 43 45 49 51 53 54 55 56
66 63 53 42 35 30 27 27 28 27 22 17 13 15 17 17 16 16 18 21 24 27 29 28 24 22 30 47 59 64 64 61 58 58 56 51 50 53 55 55 56 57
64 66 64 58 50 42 33 27 28 27 24 20 16 14 13 12 12 14 14 14 14 19 28 34 32 25 23 31 42 50 51 46 44 50 58 62 64 67 69 67 63 60
54 60 65 64 61 56 46 35 30 30 28 26 22 18 15 13 14 16 14 12 10 12 19 27 30 26 20 18 22 30 33 29 25 29 40 56 69 77 81 82 80 74
36 42 49 54 55 54 47 38 33 31 29 27 25 22 18 16 16 15 13 13 13 12 13 16 18 17 15 13 19 31 39 37 33 28 30 43 59 72 80 83 85 87
31 30 30 31 33 33 33 31 29 25 22 21 19 18 16 15 15 14 14 14 14 15 16 15 15 15 14 13 20 36 48 53 55 54 52 57 64 70 74 74 78 86
35 34 32 28 25 25 26 26 24 21 19 16 14 14 14 15 15 14 14 14 14 16 16 17 17 16 16 16 20 33 49 62 72 76 79 83 81 76 74 75 80 89
28 28 27 25 22 21 20 20 19 18 17 16 15 15 14 15 16 15 15 15 16 18 19 20 20 19 19 18 19 34 55 69 76 81 87 91 90 85 80 80 86 93
18 18 17 17 18 17 16 16 15 15 15 14 14 14 15 16 14 14 16 17 17 21 24 27 29 33 33 25 23 46 73 82 82 85 86 86 89 92 93 92 94 97
15 15 15 14 14 13 14 14 14 13 14 15 15 16 17 16 14 15 18 20 24 29 34 44 51 52 44 31 29 51 79 90 93 94 90 86 89 95 99 101 97 93
22 21 20 22 25 25 23 21 19 17 18 19 19 18 18 21 26 28 27 29 31 31 37 55 66 62 55 50 50 60 75 86 93 95 94 96 99 100 101 99 92 82
36 39 39 42 44 42 37 33 29 28 26 23 20 18 18 24 31 33 31 33 36 35 39 56 69 71 72 75 74 73 73 75 82 89 93 98 101 97 90 82 75 66
36 39 39 37 35 32 32 32 32 31 27 21 20 22 23 25 30 31 28 27 30 31 36 53 74 82 80 78 75 70 63 57 61 72 82 87 89 85 75 67 64 60
31 32 31 30 29 28 28 29 30 29 26 23 24 28 30 31 34 36 34 33 39 41 38 50 74 83 79 77 78 72 60 47 41 48 63 75 81 78 70 63 61 61
33 32 31 30 30 29 28 27 28 28 29 33 38 42 41 38 38 48 58 66 78 80 66 58 64 65 63 67 68 60 54 50 46 48 59 72 76 73 66 61 62 64
33 32 31 30 28 27 26 25 24 24 28 41 58 67 60 50 51 62 70 73 77 76 70 64 61 58 57 60 62 60 61 65 67 64 65 70 70 66 64 67 72 75

ECMWFNIL_500_rhum_033.txt.gz
RH
36 35 35 36 37 34 32 31 29 28 29 31 33 36 39 40 42 43 44 43 41 39 41 44 49 50 46 41 35 28 22 17 14 12 11 10 9 9 8 8 7 7
45 44 43 42 40 36 33 32 31 35 36 30 26 30 37 41 41 39 39 42 45 46 47 48 49 47 43 39 34 27 21 15 12 10 10 10 9 8 7 6 6 5
53 51 49 48 44 40 38 35 36 42 37 23 17 22 29 34 35 35 35 39 47 52 51 49 48 47 44 39 32 26 20 15 12 11 10 10 10 10 8 6 6 5
59 56 53 54 51 45 42 39 39 41 31 19 17 18 22 27 31 35 37 41 47 50 50 50 52 53 51 45 37 29 24 19 16 13 12 12 12 12 11 10 8 7
64 62 58 57 53 48 46 43 41 36 24 17 17 17 21 25 31 40 48 52 53 52 50 51 53 56 56 54 49 43 37 31 26 22 17 16 15 15 15 15 14 13
75 71 63 57 53 51 50 47 40 32 22 18 17 16 18 21 25 34 43 49 52 54 54 55 56 57 56 54 53 52 50 45 38 30 23 20 18 18 18 19 20 19
86 78 66 58 56 53 51 46 37 29 22 17 15 13 13 13 16 20 23 28 34 41 50 56 56 54 53 54 55 55 55 51 43 32 26 24 23 22 23 25 26 26
84 76 65 59 56 51 47 41 33 26 20 15 13 12 12 12 14 16 17 20 24 31 40 43 44 49 55 60 61 59 55 52 47 40 33 28 26 26 27 29 32 34
83 73 61 54 50 45 41 36 29 24 19 14 11 12 15 17 19 20 20 21 23 27 30 31 36 47 57 60 59 55 51 49 48 47 45 39 32 28 28 29 32 35
77 63 53 47 43 39 35 30 26 23 19 15 12 13 15 16 16 17 18 19 20 22 24 25 29 37 46 51 53 51 47 43 41 43 47 47 42 35 32 30 31 33
62 53 48 43 39 35 32 28 26 25 21 16 13 13 13 12 11 12 13 15 17 20 22 23 23 26 31 35 37 35 32 32 35 42 50 55 54 47 42 39 36 35
59 53 48 43 39 37 34 32 30 26 22 18 15 15 14 14 12 12 14 17 18 18 19 20 21 24 27 30 30 26 22 23 30 40 50 57 59 58 56 54 50 45
61 55 51 49 47 45 43 39 33 27 22 19 18 17 17 17 15 13 15 17 17 16 16 15 15 16 19 25 32 33 30 27 25 26 32 39 45 47 47 49 52 53
66 64 62 59 58 58 56 50 42 37 33 30 27 25 24 24 22 18 16 15 14 14 15 14 12 11 11 14 21 29 32 28 20 14 15 19 25 29 30 31 34 41
78 76 69 64 68 75 77 70 61 57 52 45 39 34 31 30 28 26 23 19 18 18 17 16 14 14 13 12 13 16 19 17 14 13 13 13 17 23 27 27 28 31
83 76 68 62 63 69 74 70 66 66 65 60 52 45 40 36 31 28 25 22 20 19 17 16 15 15 16 16 15 15 15 15 15 15 15 15 17 20 22 25 31 37
75 68 63 58 53 51 50 48 49 52 53 52 49 45 41 37 32 28 24 21 20 18 18 18 18 16 17 18 18 18 18 18 18 17 17 17 18 19 19 22 32 48
70 65 61 58 54 51 48 46 45 42 41 41 41 40 40 40 38 34 31 29 26 24 24 22 20 21 25 26 23 21 22 20 20 21 21 22 23 22 22 23 33 55
55 56 54 52 49 45 43 42 41 39 38 37 34 32 33 35 34 31 29 27 23 22 21 20 21 25 32 34 31 30 30 25 23 24 25 27 30 30 29 31 41 60
31 30 30 29 28 25 24 25 26 27 26 25 24 24 25 26 26 24 22 21 19 19 19 19 19 22 28 32 32 35 36 34 34 30 27 31 36 35 41 50 56 62
25 23 22 21 19 19 19 18 18 18 18 18 17 16 17 20 20 20 21 20 18 20 22 23 23 23 25 30 37 43 45 47 47 37 29 36 42 39 46 58 62 65
34 32 30 29 29 30 30 29 27 26 27 30 30 26 25 27 27 26 26 23 22 24 26 29 31 29 25 27 36 44 44 44 46 40 33 39 45 45 48 53 56 62
45 41 41 42 41 40 38 37 37 35 34 39 43 44 44 42 37 33 30 28 28 27 25 23 25 27 25 27 32 35 36 40 46 45 42 45 53 60 63 64 63 62
63 62 62 60 57 54 49 45 45 43 38 35 35 37 38 37 33 29 27 27 26 25 24 22 21 23 27 32 35 35 35 39 43 47 50 53 60 70 73 71 69 65
84 81 78 73 69 64 58 53 50 46 41 37 34 33 32 31 30 30 29 27 27 27 25 23 23 28 35 40 43 44 44 42 42 46 49 51 59 71 75 72 67 63
79 76 73 71 68 62 55 51 46 41 38 36 34 32 31 31 30 29 28 27 28 27 26 29 34 41 50 55 56 58 61 62 64 63 59 59 64 67 66 64 57 50